Tracking 29892 objects as of 21-Nov-2024
HD Live streaming from Space Station
objects crossing your sky now

STARLINK-5144

Track STARLINK-5144 now!
10-day predictions
STARLINK-5144 is classified as:


NORAD ID: 54072
Int'l Code: 2022-136X
Perigee: 453.1 km
Apogee: 455.0 km
Inclination: 53.2 °
Period: 93.5 minutes
Semi major axis: 6825 km
RCS: Unknown
Launch date: October 20, 2022
Source: United States (US)
Launch site: AIR FORCE EASTERN TEST RANGE (AFETR)
Your satellite tracking list
Your tracking list is empty




NASA's NSSDC Master Catalog

Two Line Element Set (TLE):
1 54072U 22136X   24326.25001157  .01209914  00000-0  27742-1 0  9999
2 54072  53.2130 307.7296 0001351  85.9855 343.2668 15.39722272115872
Source of the keplerian elements: AFSPC